FW2617 Weather Reports


time (UTC)temp
C
wind
direction
speed
KPH
gust
KPH
rain 1hr
cm
rain 24hr
cm
rain mn
cm
humidity
%
barometer
mb
20260510220904 22 35 14.5 25.7 0.00 0.00 0.00 78 1012.7
20260510220005 22 30 16.1 32.2 0.00 0.00 0.00 76 1013.3
20260510215425 22 24 17.7 32.2 0.00 0.00 0.00 76 1013.6
20260510214525 23 27 19.3 33.8 0.00 0.00 0.00 75 1013.3
20260510213604 23 25 17.7 29.0 0.00 0.00 0.00 75 1012.9
20260510212704 25 28 11.3 27.4 0.00 0.00 0.00 72 1013.0
20260510211825 25 51 9.7 22.5 0.00 0.00 0.00 71 1012.9
20260510210904 26 49 11.3 22.5 0.00 0.00 0.00 70 1012.6
20260510210005 26 53 9.7 20.9 0.00 0.00 0.00 73 1012.1
20260510205404 26 51 11.3 20.9 0.00 0.00 0.00 73 1012.3
20260510204504 25 45 11.3 22.5 0.00 0.00 0.00 73 1012.7
20260510203604 25 56 9.7 22.5 0.00 0.00 0.00 74 1012.9
20260510202704 24 53 9.7 24.1 0.00 0.00 0.00 76 1013.0
20260510201804 24 53 9.7 24.1 0.00 0.00 0.00 75 1013.0
20260510200904 23 54 11.3 25.7 0.00 0.00 0.00 77 1012.9
20260510200025 23 46 11.3 25.7 0.00 0.00 0.00 78 1013.0
20260510195404 22 47 11.3 20.9 0.00 0.00 0.00 80 1013.1
20260510194504 22 43 9.7 24.1 0.00 0.00 0.00 79 1013.5
20260510193625 22 44 9.7 20.9 0.00 0.00 0.00 79 1013.4
20260510192704 22 50 11.3 22.5 0.00 0.00 0.00 78 1013.3
20260510191826 22 43 12.9 29.0 0.00 0.00 0.00 75 1013.2
20260510190905 23 47 14.5 29.0 0.00 0.00 0.00 73 1013.0
20260510190005 23 43 11.3 22.5 0.00 0.00 0.00 72 1012.8
20260510185404 23 42 11.3 25.7 0.00 0.00 0.00 72 1012.7
20260510184504 23 59 8.0 24.1 0.00 0.00 0.00 73 1012.5
20260510183604 22 61 4.8 12.9 0.00 0.00 0.00 73 1012.4
20260510182704 22 54 8.0 19.3 0.00 0.00 0.00 71 1012.5
20260510181804 23 55 9.7 24.1 0.00 0.00 0.00 69 1012.8
20260510180926 25 50 12.9 27.4 0.00 0.00 0.00 65 1013.0
20260510180004 27 120 1.6 8.0 0.00 0.00 0.00 70 1012.5
20260510175425 27 145 3.2 9.7 0.00 0.00 0.00 69 1012.4
20260510174504 28 153 3.2 11.3 0.00 0.00 0.00 69 1012.5
20260510173604 27 153 4.8 9.7 0.00 0.00 0.00 70 1012.3
20260510172725 27 156 4.8 14.5 0.00 0.00 0.00 69 1012.3
20260510171826 28 153 6.4 14.5 0.00 0.00 0.00 68 1012.2
20260510170904 28 163 6.4 22.5 0.00 0.00 0.00 70 1011.8
20260510170004 27 168 8.0 19.3 0.00 0.00 0.00 69 1011.4
20260510165404 27 172 8.0 19.3 0.00 0.00 0.00 70 1011.5
20260510164504 27 158 11.3 27.4 0.00 0.00 0.00 70 1011.5
20260510163604 27 154 8.0 27.4 0.00 0.00 0.00 70 1011.3
20260510162704 27 155 11.3 25.7 0.00 0.00 0.00 71 1011.1
20260510161804 26 158 12.9 27.4 0.00 0.00 0.00 72 1010.8
20260510160904 26 156 11.3 29.0 0.00 0.00 0.00 73 1010.6
20260510160005 26 159 11.3 22.5 0.00 0.00 0.00 73 1010.7
20260510155404 26 151 11.3 25.7 0.00 0.00 0.00 73 1010.8
20260510154504 25 156 12.9 24.1 0.00 0.00 0.00 73 1010.9
20260510153605 25 146 12.9 32.2 0.00 0.00 0.00 73 1010.8
20260510152704 25 148 12.9 32.2 0.00 0.00 0.00 72 1010.9
20260510151804 24 149 11.3 27.4 0.00 0.00 0.00 73 1010.9
20260510150904 24 147 11.3 35.4 0.00 0.00 0.00 73 1011.1
20260510150004 23 147 11.3 32.2 0.00 0.00 0.00 73 1011.2
20260510145405 23 146 11.3 32.2 0.00 0.00 0.00 73 1011.3
20260510144505 23 135 6.4 22.5 0.00 0.00 0.00 73 1011.6
20260510143625 23 132 8.0 22.5 0.00 0.00 0.00 74 1011.6
20260510142704 23 129 4.8 22.5 0.00 0.00 0.00 75 1011.7
20260510141825 22 133 6.4 17.7 0.00 0.00 0.00 76 1011.9
20260510140904 22 135 6.4 17.7 0.00 0.00 0.00 75 1011.9
20260510140004 22 132 4.8 14.5 0.00 0.00 0.00 75 1012.0
20260510135404 22 136 4.8 16.1 0.00 0.00 0.00 75 1011.9
20260510134505 21 138 4.8 12.9 0.00 0.00 0.00 76 1011.8
20260510133604 21 134 4.8 14.5 0.00 0.00 0.00 76 1011.7
20260510132704 21 136 3.2 8.0 0.00 0.00 0.00 78 1011.7
20260510131804 21 127 3.2 8.0 0.00 0.00 0.00 78 1011.7
20260510130904 21 132 4.8 14.5 0.00 0.00 0.00 78 1011.7
20260510130004 21 129 3.2 12.9 0.00 0.00 0.00 80 1011.6
20260510125425 21 131 3.2 11.3 0.00 0.00 0.00 81 1011.6
20260510124504 20 133 4.8 11.3 0.00 0.00 0.00 82 1011.3
20260510123625 20 138 3.2 12.9 0.00 0.00 0.00 82 1011.2
20260510122704 20 123 3.2 11.3 0.00 0.00 0.00 82 1011.3
20260510121804 20 115 3.2 8.0 0.00 0.00 0.00 82 1011.2
20260510120925 20 89 1.6 8.0 0.00 0.00 0.00 82 1011.1
20260510120004 20 92 3.2 11.3 0.00 0.00 0.00 82 1011.1
20260510115404 20 89 3.2 11.3 0.00 0.00 0.00 82 1011.0
20260510114505 20 81 3.2 11.3 0.00 0.00 0.00 83 1010.8
20260510113604 21 82 6.4 16.1 0.00 0.00 0.00 83 1010.7
20260510112704 21 86 6.4 14.5 0.00 0.00 0.00 85 1010.6
20260510111804 21 67 11.3 24.1 0.00 0.00 0.00 88 1010.5
20260510110904 22 73 6.4 19.3 0.00 0.00 0.00 91 1010.5
20260510110005 21 76 4.8 14.5 0.00 0.00 0.00 91 1010.5
20260510105404 21 70 4.8 14.5 0.00 0.00 0.00 91 1010.4
20260510104504 21 70 6.4 17.7 0.00 0.00 0.00 91 1010.3
20260510103625 21 65 6.4 19.3 0.00 0.00 0.00 91 1010.2
20260510102725 21 64 4.8 14.5 0.00 0.00 0.00 91 1010.1
20260510101805 20 66 4.8 9.7 0.00 0.00 0.00 90 1010.0
20260510100904 20 75 3.2 8.0 0.00 0.00 0.00 89 1009.8
20260510100004 20 60 6.4 14.5 0.00 0.00 0.00 89 1009.8
20260510095404 21 53 6.4 14.5 0.00 0.00 0.00 89 1009.8
20260510094504 21 57 4.8 12.9 0.00 0.00 0.00 89 1009.4
20260510093604 21 66 4.8 11.3 0.00 0.00 0.00 88 1009.0
20260510092725 21 64 1.6 9.7 0.00 0.00 0.00 87 1008.8
20260510091804 21 63 4.8 8.0 0.00 0.00 0.00 86 1008.8
20260510090904 21 71 3.2 8.0 0.00 0.00 0.00 85 1008.6
20260510090025 22 80 1.6 4.8 0.00 0.00 0.00 85 1008.4
20260510085425 22 0 0.0 0.0 0.00 0.00 0.00 85 1008.2
20260510084504 22 0 0.0 0.0 0.00 0.00 0.00 84 1007.9
20260510083604 22 164 1.6 6.4 0.00 0.00 0.00 85 1007.8
20260510082725 22 157 3.2 8.0 0.00 0.00 0.00 85 1007.6
20260510081805 22 158 3.2 9.7 0.00 0.00 0.00 85 1007.3
20260510080904 22 160 4.8 11.3 0.00 0.00 0.00 85 1007.1
20260510080004 22 164 6.4 16.1 0.00 0.00 0.00 86 1007.1
20260510075404 22 155 3.2 12.9 0.00 0.00 0.00 86 1007.1
20260510074504 22 117 0.0 3.2 0.00 0.00 0.00 85 1007.5
20260510073604 22 0 0.0 0.0 0.00 0.00 0.00 85 1007.6
20260510072704 22 0 0.0 0.0 0.00 0.00 0.00 84 1007.7
20260510071804 22 0 0.0 0.0 0.00 0.00 0.00 84 1007.7
20260510070904 22 49 1.6 4.8 0.00 0.00 0.00 84 1008.0
20260510070004 22 159 1.6 12.9 0.00 0.00 0.00 83 1007.9
20260510065404 22 161 6.4 12.9 0.00 0.00 0.00 84 1007.2
20260510064505 22 163 6.4 12.9 0.00 0.00 0.00 84 1006.8
20260510063604 22 164 4.8 12.9 0.00 0.00 0.00 83 1006.8
20260510062704 22 163 4.8 11.3 0.00 0.00 0.00 82 1006.7
20260510061825 23 163 6.4 12.9 0.00 0.00 0.00 81 1006.6
20260510060904 23 163 8.0 16.1 0.00 0.00 0.00 80 1006.5
20260510060004 23 163 8.0 17.7 0.00 0.00 0.00 79 1006.5
20260510055404 23 163 6.4 17.7 0.00 0.00 0.00 78 1006.5
20260510054504 22 166 6.4 14.5 0.00 0.00 0.00 77 1006.4
20260510053604 22 170 6.4 16.1 0.00 0.00 0.00 76 1006.3
20260510052704 22 166 4.8 14.5 0.00 0.00 0.00 76 1006.1
20260510051825 22 162 4.8 11.3 0.00 0.00 0.00 75 1006.0
20260510050925 22 155 3.2 9.7 0.00 0.00 0.00 75 1005.9
20260510050005 23 153 3.2 11.3 0.00 0.00 0.00 74 1006.0
20260510045404 23 154 3.2 11.3 0.00 0.00 0.00 73 1006.0
20260510044504 23 153 3.2 9.7 0.00 0.00 0.00 73 1006.1
20260510043604 23 151 3.2 14.5 0.00 0.00 0.00 72 1006.2
20260510042704 23 156 3.2 11.3 0.00 0.00 0.00 72 1006.2
20260510041804 23 151 4.8 11.3 0.00 0.00 0.00 72 1006.3
20260510040904 24 152 4.8 11.3 0.00 0.00 0.00 71 1006.3
20260510040004 24 151 4.8 11.3 0.00 0.00 0.00 71 1006.4
20260510035425 24 150 3.2 11.3 0.00 0.00 0.00 71 1006.4
20260510034504 24 146 3.2 8.0 0.00 0.00 0.00 70 1006.4
20260510033625 24 148 1.6 8.0 0.00 0.00 0.00 69 1006.4
20260510032725 25 151 1.6 6.4 0.00 0.00 0.00 67 1006.4
20260510031804 25 154 1.6 6.4 0.00 0.00 0.00 66 1006.4
20260510030904 25 146 1.6 6.4 0.00 0.00 0.00 65 1006.4
20260510030025 25 149 3.2 8.0 0.00 0.00 0.00 63 1006.3
20260510025404 25 154 1.6 8.0 0.00 0.00 0.00 62 1006.3
20260510024504 26 155 1.6 3.2 0.00 0.00 0.00 62 1006.1
20260510023604 26 155 1.6 4.8 0.00 0.00 0.00 61 1006.0
20260510022725 26 155 1.6 4.8 0.00 0.00 0.00 59 1005.9
20260510021804 27 155 1.6 3.2 0.00 0.00 0.00 56 1005.8
20260510020904 27 155 3.2 6.4 0.00 0.00 0.00 54 1005.7
20260510020005 27 155 1.6 6.4 0.00 0.00 0.00 53 1005.5
20260510015404 28 155 1.6 4.8 0.00 0.00 0.00 52 1005.4
20260510014504 28 155 1.6 4.8 0.00 0.00 0.00 52 1005.4
20260510013604 28 155 1.6 4.8 0.00 0.00 0.00 51 1005.3
20260510012704 29 155 1.6 4.8 0.00 0.00 0.00 50 1005.2
20260510011825 30 155 0.0 3.2 0.00 0.00 0.00 49 1005.1
20260510010904 30 155 1.6 4.8 0.00 0.00 0.00 49 1005.0
20260510010004 30 154 1.6 3.2 0.00 0.00 0.00 48 1005.0
20260510005404 30 155 3.2 8.0 0.00 0.00 0.00 47 1005.0
20260510004504 30 155 3.2 8.0 0.00 0.00 0.00 46 1004.9
20260510003604 30 155 3.2 9.7 0.00 0.00 0.00 45 1004.9
20260510002725 31 149 3.2 8.0 0.00 0.00 0.00 44 1004.8
20260510001804 31 152 3.2 6.4 0.00 0.00 0.00 44 1004.9
20260510000904 31 156 3.2 8.0 0.00 0.00 0.00 44 1004.9
20260510000025 31 164 3.2 8.0 0.00 0.00 0.00 43 1004.8
20260509235425 32 159 3.2 6.4 0.00 0.00 0.00 43 1004.8
20260509234504 32 138 1.6 8.0 0.00 0.00 0.00 42 1004.9
20260509233604 33 69 3.2 8.0 0.00 0.00 0.00 42 1004.9
20260509232704 33 60 4.8 9.7 0.00 0.00 0.00 40 1004.8
20260509231805 33 10 3.2 8.0 0.00 0.00 0.00 42 1004.8
20260509230925 33 56 3.2 8.0 0.00 0.00 0.00 41 1004.8
20260509230004 33 67 1.6 6.4 0.00 0.00 0.00 41 1004.9
20260509225404 33 89 1.6 9.7 0.00 0.00 0.00 41 1004.9
20260509224504 33 65 3.2 6.4 0.00 0.00 0.00 42 1004.9
20260509223604 34 47 3.2 6.4 0.00 0.00 0.00 43 1004.9
20260509222725 34 48 3.2 6.4 0.00 0.00 0.00 40 1004.9
20260509221804 34 18 3.2 6.4 0.00 0.00 0.00 40 1004.8